sat.trackr.live / text

‹ back to catalog

SPARK 1

NORAD 41900 · 2016-081C

PAYLOAD ACTIVE UNKNOWN

§ Identity

Operator
Country
PRC
Launch date
2016-12-21
Launch site
JSC
Launch vehicle
Mass (kg)
RCS (m²)
0.25

External: N2YO · Heavens-Above · Gunter

§ Orbital elements

Epoch: 2026-09-19T22:30:01.092096Z

Period
98.64 min
Inclination
98.5566°
Eccentricity
0.0024296
Mean motion
14.59868893 rev/d
Perigee alt
676.4 km
Apogee alt
710.8 km
Semi-major
7,071.7 km
B*
7.8281e-5
RAAN
260.3652°
Arg perigee
30.4200°
Mean anomaly
329.8403°
Rev number
51,809

§ Raw data

SPARK 11 41900U 16081C   26262.93751264  .00000325  00000+0  78281-4 0  99942 41900  98.5566 260.3652 0024296  30.4200 329.8403 14.59868893518094

JSON: /api/v1/satellites/41900 · /tle

For live sub-satellite position, see the globe view (requires WebGL).

§ Visibility from observer

Set your observer location to see the next 7 days of passes ≥ 10°. The values pass through the URL so the page stays shareable.

No JS? Fill the form by hand. The geolocation button needs JavaScript.